Year,Month,Day,Hour,Minute,Value (Times are PST for temperature in C)
2005,09,30,00,00,13.60
2005,09,30,00,01,13.60
2005,09,30,00,02,13.60
2005,09,30,00,03,13.50
2005,09,30,00,04,13.50
2005,09,30,00,05,13.50
2005,09,30,00,06,13.50
2005,09,30,00,07,13.50
2005,09,30,00,08,13.50
2005,09,30,00,09,13.50
2005,09,30,00,10,13.50
2005,09,30,00,11,13.50
2005,09,30,00,12,13.50
2005,09,30,00,13,13.50
2005,09,30,00,14,13.50
2005,09,30,00,15,13.50
2005,09,30,00,16,13.50
2005,09,30,00,17,13.40
2005,09,30,00,18,13.40
2005,09,30,00,19,13.40
2005,09,30,00,20,13.40
2005,09,30,00,21,13.40
2005,09,30,00,22,13.40
2005,09,30,00,23,13.40
2005,09,30,00,24,13.40
2005,09,30,00,25,13.40
2005,09,30,00,26,13.40
2005,09,30,00,27,13.30
2005,09,30,00,28,13.40
2005,09,30,00,29,13.30
2005,09,30,00,30,13.30
2005,09,30,00,31,13.30
2005,09,30,00,32,13.30
2005,09,30,00,33,13.30
2005,09,30,00,34,13.30
2005,09,30,00,35,13.30
2005,09,30,00,36,13.30
2005,09,30,00,37,13.30
2005,09,30,00,38,13.30
2005,09,30,00,39,13.30
2005,09,30,00,40,13.30
2005,09,30,00,41,13.30
2005,09,30,00,42,13.30
2005,09,30,00,43,13.30
2005,09,30,00,44,13.30
2005,09,30,00,45,13.30
2005,09,30,00,46,13.30
2005,09,30,00,47,13.30
2005,09,30,00,48,13.30
2005,09,30,00,49,13.20
2005,09,30,00,50,13.20
2005,09,30,00,51,13.20
2005,09,30,00,52,13.20
2005,09,30,00,53,13.20
2005,09,30,00,54,13.20
2005,09,30,00,55,13.20
2005,09,30,00,56,13.20
2005,09,30,00,57,13.20
2005,09,30,00,58,13.20
2005,09,30,00,59,13.20
2005,09,30,01,00,13.20
2005,09,30,01,01,13.20
2005,09,30,01,02,13.20
2005,09,30,01,03,13.20
2005,09,30,01,04,13.20
2005,09,30,01,05,13.20
2005,09,30,01,06,13.10
2005,09,30,01,07,13.10
2005,09,30,01,08,13.10
2005,09,30,01,09,13.10
2005,09,30,01,10,13.10
2005,09,30,01,11,13.10
2005,09,30,01,12,13.10
2005,09,30,01,13,13.10
2005,09,30,01,14,13.10
2005,09,30,01,15,13.10
2005,09,30,01,16,13.10
2005,09,30,01,17,13.10
2005,09,30,01,18,13.10
2005,09,30,01,19,13.10
2005,09,30,01,20,13.10
2005,09,30,01,21,13.10
2005,09,30,01,22,13.10
2005,09,30,01,23,13.10
2005,09,30,01,24,13.10
2005,09,30,01,25,13.10
2005,09,30,01,26,13.10
2005,09,30,01,27,13.10
2005,09,30,01,28,13.10
2005,09,30,01,29,13.10
2005,09,30,01,30,13.10
2005,09,30,01,31,13.10
2005,09,30,01,32,13.10
2005,09,30,01,33,13.10
2005,09,30,01,34,13.10
2005,09,30,01,35,13.10
2005,09,30,01,36,13.10
2005,09,30,01,37,13.00
2005,09,30,01,38,13.00
2005,09,30,01,39,13.10
2005,09,30,01,40,13.10
2005,09,30,01,41,13.10
2005,09,30,01,42,13.10
2005,09,30,01,43,13.10
2005,09,30,01,44,13.10
2005,09,30,01,45,13.10
2005,09,30,01,46,13.10
2005,09,30,01,47,13.10
2005,09,30,01,48,13.10
2005,09,30,01,49,13.10
2005,09,30,01,50,13.00
2005,09,30,01,51,13.00
2005,09,30,01,52,13.00
2005,09,30,01,53,13.00
2005,09,30,01,54,13.00
2005,09,30,01,55,12.90
2005,09,30,01,56,12.90
2005,09,30,01,57,12.90
2005,09,30,01,58,12.90
2005,09,30,01,59,13.00
2005,09,30,02,00,13.00
2005,09,30,02,01,13.00
2005,09,30,02,02,13.00
2005,09,30,02,03,13.10
2005,09,30,02,04,13.10
2005,09,30,02,05,13.10
2005,09,30,02,06,13.00
2005,09,30,02,07,13.00
2005,09,30,02,08,13.00
2005,09,30,02,09,12.90
2005,09,30,02,10,12.90
2005,09,30,02,11,12.80
2005,09,30,02,12,12.80
2005,09,30,02,13,12.80
2005,09,30,02,14,12.80
2005,09,30,02,15,12.80
2005,09,30,02,16,12.80
2005,09,30,02,17,12.80
2005,09,30,02,18,12.80
2005,09,30,02,19,12.80
2005,09,30,02,20,12.80
2005,09,30,02,21,12.80
2005,09,30,02,22,12.80
2005,09,30,02,23,12.80
2005,09,30,02,24,12.90
2005,09,30,02,25,12.90
2005,09,30,02,26,12.90
2005,09,30,02,27,12.90
2005,09,30,02,28,12.90
2005,09,30,02,29,12.90
2005,09,30,02,30,12.80
2005,09,30,02,31,12.80
2005,09,30,02,32,12.80
2005,09,30,02,33,12.80
2005,09,30,02,34,12.80
2005,09,30,02,35,12.80
2005,09,30,02,36,12.80
2005,09,30,02,37,12.80
2005,09,30,02,38,12.70
2005,09,30,02,39,12.70
2005,09,30,02,40,12.70
2005,09,30,02,41,12.70
2005,09,30,02,42,12.70
2005,09,30,02,43,12.70
2005,09,30,02,44,12.70
2005,09,30,02,45,12.80
2005,09,30,02,46,12.80
2005,09,30,02,47,12.80
2005,09,30,02,48,12.80
2005,09,30,02,49,12.80
2005,09,30,02,50,12.70
2005,09,30,02,51,12.70
2005,09,30,02,52,12.70
2005,09,30,02,53,12.70
2005,09,30,02,54,12.70
2005,09,30,02,55,12.70
2005,09,30,02,56,12.70
2005,09,30,02,57,12.70
2005,09,30,02,58,12.70
2005,09,30,02,59,12.60
2005,09,30,03,00,12.60
2005,09,30,03,01,12.60
2005,09,30,03,02,12.60
2005,09,30,03,03,12.60
2005,09,30,03,04,12.60
2005,09,30,03,05,12.60
2005,09,30,03,06,12.60
2005,09,30,03,07,12.50
2005,09,30,03,08,12.50
2005,09,30,03,09,12.50
2005,09,30,03,10,12.50
2005,09,30,03,11,12.50
2005,09,30,03,12,12.40
2005,09,30,03,13,12.40
2005,09,30,03,14,12.40
2005,09,30,03,15,12.30
2005,09,30,03,16,12.30
2005,09,30,03,17,12.30
2005,09,30,03,18,12.30
2005,09,30,03,19,12.30
2005,09,30,03,20,12.30
2005,09,30,03,21,12.30
2005,09,30,03,22,12.30
2005,09,30,03,23,12.20
2005,09,30,03,24,12.20
2005,09,30,03,25,12.20
2005,09,30,03,26,12.20
2005,09,30,03,27,12.20
2005,09,30,03,28,12.20
2005,09,30,03,29,12.20
2005,09,30,03,30,12.20
2005,09,30,03,31,12.20
2005,09,30,03,32,12.20
2005,09,30,03,33,12.20
2005,09,30,03,34,12.20
2005,09,30,03,35,12.30
2005,09,30,03,36,12.30
2005,09,30,03,37,12.30
2005,09,30,03,38,12.30
2005,09,30,03,39,12.30
2005,09,30,03,40,12.20
2005,09,30,03,41,12.20
2005,09,30,03,42,12.20
2005,09,30,03,43,12.20
2005,09,30,03,44,12.20
2005,09,30,03,45,12.10
2005,09,30,03,46,12.10
2005,09,30,03,47,12.10
2005,09,30,03,48,12.10
2005,09,30,03,49,12.00
2005,09,30,03,50,12.00
2005,09,30,03,51,12.00
2005,09,30,03,52,12.00
2005,09,30,03,53,11.90
2005,09,30,03,54,11.90
2005,09,30,03,55,11.90
2005,09,30,03,56,11.90
2005,09,30,03,57,11.80
2005,09,30,03,58,11.80
2005,09,30,03,59,11.80
2005,09,30,04,00,11.80
2005,09,30,04,01,11.80
2005,09,30,04,02,11.80
2005,09,30,04,03,11.80
2005,09,30,04,04,11.80
2005,09,30,04,05,11.80
2005,09,30,04,06,11.80
2005,09,30,04,07,11.80
2005,09,30,04,08,11.80
2005,09,30,04,09,11.80
2005,09,30,04,10,11.70
2005,09,30,04,11,11.60
2005,09,30,04,12,11.60
2005,09,30,04,13,11.60
2005,09,30,04,14,11.60
2005,09,30,04,15,11.60
2005,09,30,04,16,11.60
2005,09,30,04,17,11.60
2005,09,30,04,18,11.50
2005,09,30,04,19,11.40
2005,09,30,04,20,11.40
2005,09,30,04,21,11.40
2005,09,30,04,22,11.40
2005,09,30,04,23,11.40
2005,09,30,04,24,11.40
2005,09,30,04,25,11.40
2005,09,30,04,26,11.40
2005,09,30,04,27,11.40
2005,09,30,04,28,11.40
2005,09,30,04,29,11.40
2005,09,30,04,30,11.50
2005,09,30,04,31,11.60
2005,09,30,04,32,11.60
2005,09,30,04,33,11.60
2005,09,30,04,34,11.60
2005,09,30,04,35,11.60
2005,09,30,04,36,11.60
2005,09,30,04,37,11.60
2005,09,30,04,38,11.50
2005,09,30,04,39,11.40
2005,09,30,04,40,11.40
2005,09,30,04,41,11.40
2005,09,30,04,42,11.40
2005,09,30,04,43,11.40
2005,09,30,04,44,11.40
2005,09,30,04,45,11.40
2005,09,30,04,46,11.40
2005,09,30,04,47,11.40
2005,09,30,04,48,11.30
2005,09,30,04,49,11.30
2005,09,30,04,50,11.20
2005,09,30,04,51,11.20
2005,09,30,04,52,11.20
2005,09,30,04,53,11.20
2005,09,30,04,54,11.20
2005,09,30,04,55,11.20
2005,09,30,04,56,11.20
2005,09,30,04,57,11.20
2005,09,30,04,58,11.20
2005,09,30,04,59,11.30
2005,09,30,05,00,11.30
2005,09,30,05,01,11.30
2005,09,30,05,02,11.30
2005,09,30,05,03,11.30
2005,09,30,05,04,11.30
2005,09,30,05,05,11.30
2005,09,30,05,06,11.30
2005,09,30,05,07,11.30
2005,09,30,05,08,11.30
2005,09,30,05,09,11.30
2005,09,30,05,10,11.30
2005,09,30,05,11,11.30
2005,09,30,05,12,11.30
2005,09,30,05,13,11.30
2005,09,30,05,14,11.30
2005,09,30,05,15,11.30
2005,09,30,05,16,11.30
2005,09,30,05,17,11.30
2005,09,30,05,18,11.40
2005,09,30,05,19,11.40
2005,09,30,05,20,11.40
2005,09,30,05,21,11.40
2005,09,30,05,22,11.40
2005,09,30,05,23,11.40
2005,09,30,05,24,11.40
2005,09,30,05,25,11.40
2005,09,30,05,26,11.40
2005,09,30,05,27,11.30
2005,09,30,05,28,11.30
2005,09,30,05,29,11.20
2005,09,30,05,30,11.20
2005,09,30,05,31,11.20
2005,09,30,05,32,11.20
2005,09,30,05,33,11.20
2005,09,30,05,34,11.20
2005,09,30,05,35,11.30
2005,09,30,05,36,11.30
2005,09,30,05,37,11.40
2005,09,30,05,38,11.60
2005,09,30,05,39,11.70
2005,09,30,05,40,11.80
2005,09,30,05,41,11.80
2005,09,30,05,42,11.80
2005,09,30,05,43,11.80
2005,09,30,05,44,11.70
2005,09,30,05,45,11.80
2005,09,30,05,46,11.80
2005,09,30,05,47,11.80
2005,09,30,05,48,11.80
2005,09,30,05,49,11.80
2005,09,30,05,50,11.70
2005,09,30,05,51,11.60
2005,09,30,05,52,11.60
2005,09,30,05,53,11.50
2005,09,30,05,54,11.40
2005,09,30,05,55,11.30
2005,09,30,05,56,11.20
2005,09,30,05,57,11.20
2005,09,30,05,58,11.10
2005,09,30,05,59,11.10
2005,09,30,06,00,11.00
2005,09,30,06,01,10.90
2005,09,30,06,02,10.90
2005,09,30,06,03,10.90
2005,09,30,06,04,10.90
2005,09,30,06,05,10.80
2005,09,30,06,06,10.70
2005,09,30,06,07,10.70
2005,09,30,06,08,10.60
2005,09,30,06,09,10.60
2005,09,30,06,10,10.50
2005,09,30,06,11,10.40
2005,09,30,06,12,10.40
2005,09,30,06,13,10.40
2005,09,30,06,14,10.40
2005,09,30,06,15,10.40
2005,09,30,06,16,10.40
2005,09,30,06,17,10.40
2005,09,30,06,18,10.40
2005,09,30,06,19,10.40
2005,09,30,06,20,10.40
2005,09,30,06,21,10.40
2005,09,30,06,22,10.40
2005,09,30,06,23,10.40
2005,09,30,06,24,10.30
2005,09,30,06,25,10.20
2005,09,30,06,26,10.10
2005,09,30,06,27,10.10
2005,09,30,06,28,10.10
2005,09,30,06,29,10.10
2005,09,30,06,30,10.10
2005,09,30,06,31,10.10
2005,09,30,06,32,10.10
2005,09,30,06,33,10.10
2005,09,30,06,34,10.10
2005,09,30,06,35,10.10
2005,09,30,06,36,10.10
2005,09,30,06,37,10.10
2005,09,30,06,38,10.00
2005,09,30,06,39,9.90
2005,09,30,06,40,9.90
2005,09,30,06,41,9.90
2005,09,30,06,42,9.80
2005,09,30,06,43,9.80
2005,09,30,06,44,9.80
2005,09,30,06,45,9.80
2005,09,30,06,46,9.70
2005,09,30,06,47,9.70
2005,09,30,06,48,9.60
2005,09,30,06,49,9.50
2005,09,30,06,50,9.40
2005,09,30,06,51,9.30
2005,09,30,06,52,9.30
2005,09,30,06,53,9.30
2005,09,30,06,54,9.30
2005,09,30,06,55,9.20
2005,09,30,06,56,9.20
2005,09,30,06,57,9.20
2005,09,30,06,58,9.20
2005,09,30,06,59,9.20
2005,09,30,07,00,9.20
2005,09,30,07,01,9.20
2005,09,30,07,02,9.20
2005,09,30,07,03,9.20
2005,09,30,07,04,9.20
2005,09,30,07,05,9.20
2005,09,30,07,06,9.20
2005,09,30,07,07,9.20
2005,09,30,07,08,9.20
2005,09,30,07,09,9.20
2005,09,30,07,10,9.20
2005,09,30,07,11,9.20
2005,09,30,07,12,9.10
2005,09,30,07,13,9.10
2005,09,30,07,14,9.10
2005,09,30,07,15,9.10
2005,09,30,07,16,9.10
2005,09,30,07,17,9.10
2005,09,30,07,18,9.10
2005,09,30,07,19,9.10
2005,09,30,07,20,9.10
2005,09,30,07,21,9.10
2005,09,30,07,22,9.10
2005,09,30,07,23,9.10
2005,09,30,07,24,9.10
2005,09,30,07,25,9.10
2005,09,30,07,26,9.10
2005,09,30,07,27,9.10
2005,09,30,07,28,9.00
2005,09,30,07,29,9.00
2005,09,30,07,30,9.10
2005,09,30,07,31,9.10
2005,09,30,07,32,9.10
2005,09,30,07,33,9.10
2005,09,30,07,34,9.10
2005,09,30,07,35,9.10
2005,09,30,07,36,9.00
2005,09,30,07,37,9.00
2005,09,30,07,38,9.00
2005,09,30,07,39,9.00
2005,09,30,07,40,9.00
2005,09,30,07,41,9.00
2005,09,30,07,42,8.90
2005,09,30,07,43,8.90
2005,09,30,07,44,8.80
2005,09,30,07,45,8.80
2005,09,30,07,46,8.70
2005,09,30,07,47,8.70
2005,09,30,07,48,8.70
2005,09,30,07,49,8.60
2005,09,30,07,50,8.60
2005,09,30,07,51,8.60
2005,09,30,07,52,8.60
2005,09,30,07,53,8.60
2005,09,30,07,54,8.60
2005,09,30,07,55,8.60
2005,09,30,07,56,8.60
2005,09,30,07,57,8.70
2005,09,30,07,58,8.70
2005,09,30,07,59,8.70
2005,09,30,08,00,8.70
2005,09,30,08,01,8.70
2005,09,30,08,02,8.70
2005,09,30,08,03,8.70
2005,09,30,08,04,8.70
2005,09,30,08,05,8.70
2005,09,30,08,06,8.70
2005,09,30,08,07,8.70
2005,09,30,08,08,8.70
2005,09,30,08,09,8.70
2005,09,30,08,10,8.70
2005,09,30,08,11,8.70
2005,09,30,08,12,8.70
2005,09,30,08,13,8.80
2005,09,30,08,14,8.80
2005,09,30,08,15,8.80
2005,09,30,08,16,8.90
2005,09,30,08,17,8.90
2005,09,30,08,18,8.90
2005,09,30,08,19,8.90
2005,09,30,08,20,8.90
2005,09,30,08,21,9.00
2005,09,30,08,22,9.00
2005,09,30,08,23,9.00
2005,09,30,08,24,9.10
2005,09,30,08,25,9.10
2005,09,30,08,26,9.10
2005,09,30,08,27,9.20
2005,09,30,08,28,9.20
2005,09,30,08,29,9.20
2005,09,30,08,30,9.20
2005,09,30,08,31,9.20
2005,09,30,08,32,9.20
2005,09,30,08,33,9.20
2005,09,30,08,34,9.20
2005,09,30,08,35,9.20
2005,09,30,08,36,9.30
2005,09,30,08,37,9.30
2005,09,30,08,38,9.30
2005,09,30,08,39,9.30
2005,09,30,08,40,9.30
2005,09,30,08,41,9.30
2005,09,30,08,42,9.30
2005,09,30,08,43,9.30
2005,09,30,08,44,9.30
2005,09,30,08,45,9.40
2005,09,30,08,46,9.40
2005,09,30,08,47,9.40
2005,09,30,08,48,9.40
2005,09,30,08,49,9.40
2005,09,30,08,50,9.50
2005,09,30,08,51,9.50
2005,09,30,08,52,9.50
2005,09,30,08,53,9.50
2005,09,30,08,54,9.50
2005,09,30,08,55,9.50
2005,09,30,08,56,9.50
2005,09,30,08,57,9.50
2005,09,30,08,58,9.60
2005,09,30,08,59,9.60
2005,09,30,09,00,9.60
2005,09,30,09,01,9.70
2005,09,30,09,02,9.70
2005,09,30,09,03,9.70
2005,09,30,09,04,9.70
2005,09,30,09,05,9.70
2005,09,30,09,06,9.70
2005,09,30,09,07,9.70
2005,09,30,09,08,9.70
2005,09,30,09,09,9.70
2005,09,30,09,10,9.70
2005,09,30,09,11,9.70
2005,09,30,09,12,9.70
2005,09,30,09,13,9.70
2005,09,30,09,14,9.80
2005,09,30,09,15,9.80
2005,09,30,09,16,9.80
2005,09,30,09,17,9.80
2005,09,30,09,18,9.90
2005,09,30,09,19,9.90
2005,09,30,09,20,9.90
2005,09,30,09,21,9.90
2005,09,30,09,22,9.90
2005,09,30,09,23,9.90
2005,09,30,09,24,9.90
2005,09,30,09,25,10.00
2005,09,30,09,26,10.10
2005,09,30,09,27,10.10
2005,09,30,09,28,10.10
2005,09,30,09,29,10.10
2005,09,30,09,30,10.20
2005,09,30,09,31,10.20
2005,09,30,09,32,10.20
2005,09,30,09,33,10.20
2005,09,30,09,34,10.30
2005,09,30,09,35,10.30
2005,09,30,09,36,10.30
2005,09,30,09,37,10.30
2005,09,30,09,38,10.30
2005,09,30,09,39,10.40
2005,09,30,09,40,10.40
2005,09,30,09,41,10.40
2005,09,30,09,42,10.40
2005,09,30,09,43,10.40
2005,09,30,09,44,10.40
2005,09,30,09,45,10.40
2005,09,30,09,46,10.40
2005,09,30,09,47,10.40
2005,09,30,09,48,10.40
2005,09,30,09,49,10.40
2005,09,30,09,50,10.40
2005,09,30,09,51,10.50
2005,09,30,09,52,10.60
2005,09,30,09,53,10.60
2005,09,30,09,54,10.60
2005,09,30,09,55,10.60
2005,09,30,09,56,10.60
2005,09,30,09,57,10.60
2005,09,30,09,58,10.60
2005,09,30,09,59,10.60
2005,09,30,10,00,10.60
2005,09,30,10,01,10.60
2005,09,30,10,02,10.60
2005,09,30,10,03,10.60
2005,09,30,10,04,10.60
2005,09,30,10,05,10.60
2005,09,30,10,06,10.60
2005,09,30,10,07,10.60
2005,09,30,10,08,10.60
2005,09,30,10,09,10.60
2005,09,30,10,10,10.60
2005,09,30,10,11,10.60
2005,09,30,10,12,10.70
2005,09,30,10,13,10.70
2005,09,30,10,14,10.80
2005,09,30,10,15,10.80
2005,09,30,10,16,10.90
2005,09,30,10,17,10.90
2005,09,30,10,18,10.90
2005,09,30,10,19,10.90
2005,09,30,10,20,10.90
2005,09,30,10,21,10.90
2005,09,30,10,22,10.90
2005,09,30,10,23,10.90
2005,09,30,10,24,11.10
2005,09,30,10,25,11.10
2005,09,30,10,26,11.10
2005,09,30,10,27,11.10
2005,09,30,10,28,11.20
2005,09,30,10,29,11.20
2005,09,30,10,30,11.20
2005,09,30,10,31,11.30
2005,09,30,10,32,11.30
2005,09,30,10,33,11.40
2005,09,30,10,34,11.40
2005,09,30,10,35,11.40
2005,09,30,10,36,11.40
2005,09,30,10,37,11.40
2005,09,30,10,38,11.50
2005,09,30,10,39,11.60
2005,09,30,10,40,11.60
2005,09,30,10,41,11.60
2005,09,30,10,42,11.60
2005,09,30,10,43,11.70
2005,09,30,10,44,11.70
2005,09,30,10,45,11.80
2005,09,30,10,46,11.80
2005,09,30,10,47,11.80
2005,09,30,10,48,11.80
2005,09,30,10,49,11.80
2005,09,30,10,50,11.80
2005,09,30,10,51,11.80
2005,09,30,10,52,11.80
2005,09,30,10,53,11.80
2005,09,30,10,54,11.80
2005,09,30,10,55,11.80
2005,09,30,10,56,11.80
2005,09,30,10,57,11.80
2005,09,30,10,58,11.90
2005,09,30,10,59,11.90
2005,09,30,11,00,11.90
2005,09,30,11,01,11.90
2005,09,30,11,02,11.90
2005,09,30,11,03,12.00
2005,09,30,11,04,12.00
2005,09,30,11,05,12.00
2005,09,30,11,06,12.10
2005,09,30,11,07,12.10
2005,09,30,11,08,12.10
2005,09,30,11,09,12.20
2005,09,30,11,10,12.20
2005,09,30,11,11,12.20
2005,09,30,11,12,12.30
2005,09,30,11,13,12.30
2005,09,30,11,14,12.30
2005,09,30,11,15,12.40
2005,09,30,11,16,12.40
2005,09,30,11,17,12.50
2005,09,30,11,18,12.60
2005,09,30,11,19,12.60
2005,09,30,11,20,12.70
2005,09,30,11,21,12.70
2005,09,30,11,22,12.80
2005,09,30,11,23,12.80
2005,09,30,11,24,12.90
2005,09,30,11,25,13.00
2005,09,30,11,26,13.10
2005,09,30,11,27,13.10
2005,09,30,11,28,13.20
2005,09,30,11,29,13.20
2005,09,30,11,30,13.20
2005,09,30,11,31,13.20
2005,09,30,11,32,13.20
2005,09,30,11,33,13.20
2005,09,30,11,34,13.30
2005,09,30,11,35,13.30
2005,09,30,11,36,13.30
2005,09,30,11,37,13.30
2005,09,30,11,38,13.30
2005,09,30,11,39,13.40
2005,09,30,11,40,13.40
2005,09,30,11,41,13.40
2005,09,30,11,42,13.40
2005,09,30,11,43,13.40
2005,09,30,11,44,13.50
2005,09,30,11,45,13.50
2005,09,30,11,46,13.50
2005,09,30,11,47,13.50
2005,09,30,11,48,13.50
2005,09,30,11,49,13.50
2005,09,30,11,50,13.60
2005,09,30,11,51,13.60
2005,09,30,11,52,13.60
2005,09,30,11,53,13.60
2005,09,30,11,54,13.60
2005,09,30,11,55,13.70
2005,09,30,11,56,13.70
2005,09,30,11,57,13.70
2005,09,30,11,58,13.70
2005,09,30,11,59,13.70
2005,09,30,12,00,13.80
2005,09,30,12,01,13.80
2005,09,30,12,02,13.80
2005,09,30,12,03,13.80
2005,09,30,12,04,13.80
2005,09,30,12,05,13.80
2005,09,30,12,06,13.70
2005,09,30,12,07,13.70
2005,09,30,12,08,13.70
2005,09,30,12,09,13.70
2005,09,30,12,10,13.70
2005,09,30,12,11,13.70
2005,09,30,12,12,13.70
2005,09,30,12,13,13.70
2005,09,30,12,14,13.70
2005,09,30,12,15,13.80
2005,09,30,12,16,13.90
2005,09,30,12,17,13.90
2005,09,30,12,18,14.00
2005,09,30,12,19,14.10
2005,09,30,12,20,14.10
2005,09,30,12,21,14.10
2005,09,30,12,22,14.10
2005,09,30,12,23,14.10
2005,09,30,12,24,14.10
2005,09,30,12,25,14.10
2005,09,30,12,26,14.10
2005,09,30,12,27,14.10
2005,09,30,12,28,14.20
2005,09,30,12,29,14.20
2005,09,30,12,30,14.20
2005,09,30,12,31,14.20
2005,09,30,12,32,14.30
2005,09,30,12,33,14.40
2005,09,30,12,34,14.50
2005,09,30,12,35,14.50
2005,09,30,12,36,14.60
2005,09,30,12,37,14.80
2005,09,30,12,38,14.80
2005,09,30,12,39,14.80
2005,09,30,12,40,14.80
2005,09,30,12,41,14.80
2005,09,30,12,42,14.80
2005,09,30,12,43,14.80
2005,09,30,12,44,14.80
2005,09,30,12,45,14.80
2005,09,30,12,46,14.80
2005,09,30,12,47,14.90
2005,09,30,12,48,14.90
2005,09,30,12,49,14.90
2005,09,30,12,50,14.90
2005,09,30,12,51,15.00
2005,09,30,12,52,15.10
2005,09,30,12,53,15.10
2005,09,30,12,54,15.20
2005,09,30,12,55,15.20
2005,09,30,12,56,15.10
2005,09,30,12,57,15.10
2005,09,30,12,58,15.10
2005,09,30,12,59,15.10
2005,09,30,13,00,15.10
2005,09,30,13,01,15.10
2005,09,30,13,02,15.10
2005,09,30,13,03,15.10
2005,09,30,13,04,15.00
2005,09,30,13,05,15.00
2005,09,30,13,06,14.90
2005,09,30,13,07,14.90
2005,09,30,13,08,14.80
2005,09,30,13,09,14.80
2005,09,30,13,10,14.80
2005,09,30,13,11,14.80
2005,09,30,13,12,14.70
2005,09,30,13,13,14.70
2005,09,30,13,14,14.70
2005,09,30,13,15,14.70
2005,09,30,13,16,14.60
2005,09,30,13,17,14.50
2005,09,30,13,18,14.40
2005,09,30,13,19,14.40
2005,09,30,13,20,14.30
2005,09,30,13,21,14.30
2005,09,30,13,22,14.20
2005,09,30,13,23,14.20
2005,09,30,13,24,14.20
2005,09,30,13,25,14.30
2005,09,30,13,26,14.20
2005,09,30,13,27,14.20
2005,09,30,13,28,14.20
2005,09,30,13,29,14.20
2005,09,30,13,30,14.10
2005,09,30,13,31,14.10
2005,09,30,13,32,14.10
2005,09,30,13,33,14.00
2005,09,30,13,34,14.00
2005,09,30,13,35,14.00
2005,09,30,13,36,14.00
2005,09,30,13,37,13.90
2005,09,30,13,38,13.90
2005,09,30,13,39,13.80
2005,09,30,13,40,13.80
2005,09,30,13,41,13.80
2005,09,30,13,42,13.80
2005,09,30,13,43,13.80
2005,09,30,13,44,13.80
2005,09,30,13,45,13.70
2005,09,30,13,46,13.70
2005,09,30,13,47,13.60
2005,09,30,13,48,13.60
2005,09,30,13,49,13.60
2005,09,30,13,50,13.60
2005,09,30,13,51,13.50
2005,09,30,13,52,13.50
2005,09,30,13,53,13.50
2005,09,30,13,54,13.50
2005,09,30,13,55,13.50
2005,09,30,13,56,13.50
2005,09,30,13,57,13.40
2005,09,30,13,58,13.30
2005,09,30,13,59,13.30
2005,09,30,14,00,13.30
2005,09,30,14,01,13.30
2005,09,30,14,02,13.30
2005,09,30,14,03,13.30
2005,09,30,14,04,13.30
2005,09,30,14,05,13.20
2005,09,30,14,06,13.20
2005,09,30,14,07,13.20
2005,09,30,14,08,13.20
2005,09,30,14,09,13.20
2005,09,30,14,10,13.20
2005,09,30,14,11,13.10
2005,09,30,14,12,13.10
2005,09,30,14,13,13.00
2005,09,30,14,14,13.00
2005,09,30,14,15,12.90
2005,09,30,14,16,12.90
2005,09,30,14,17,12.90
2005,09,30,14,18,12.90
2005,09,30,14,19,12.90
2005,09,30,14,20,12.90
2005,09,30,14,21,12.90
2005,09,30,14,22,12.80
2005,09,30,14,23,12.90
2005,09,30,14,24,12.90
2005,09,30,14,25,12.90
2005,09,30,14,26,12.90
2005,09,30,14,27,12.90
2005,09,30,14,28,12.90
2005,09,30,14,29,12.90
2005,09,30,14,30,12.90
2005,09,30,14,31,12.80
2005,09,30,14,32,12.80
2005,09,30,14,33,12.90
2005,09,30,14,34,12.80
2005,09,30,14,35,12.80
2005,09,30,14,36,12.80
2005,09,30,14,37,12.80
2005,09,30,14,38,12.80
2005,09,30,14,39,12.80
2005,09,30,14,40,12.80
2005,09,30,14,41,12.80
2005,09,30,14,42,12.80
2005,09,30,14,43,12.80
2005,09,30,14,44,12.80
2005,09,30,14,45,12.80
2005,09,30,14,46,12.90
2005,09,30,14,47,12.90
2005,09,30,14,48,12.90
2005,09,30,14,49,13.00
2005,09,30,14,50,13.00
2005,09,30,14,51,13.10
2005,09,30,14,52,13.20
2005,09,30,14,53,13.20
2005,09,30,14,54,13.30
2005,09,30,14,55,13.30
2005,09,30,14,56,13.30
2005,09,30,14,57,13.40
2005,09,30,14,58,13.40
2005,09,30,14,59,13.50
2005,09,30,15,00,13.50
2005,09,30,15,01,13.60
2005,09,30,15,02,13.60
2005,09,30,15,03,13.60
2005,09,30,15,04,13.60
2005,09,30,15,05,13.60
2005,09,30,15,06,13.70
2005,09,30,15,07,13.70
2005,09,30,15,08,13.70
2005,09,30,15,09,13.80
2005,09,30,15,10,13.80
2005,09,30,15,11,13.80
2005,09,30,15,12,13.80
2005,09,30,15,13,13.70
2005,09,30,15,14,13.70
2005,09,30,15,15,13.70
2005,09,30,15,16,13.70
2005,09,30,15,17,13.80
2005,09,30,15,18,13.80
2005,09,30,15,19,13.90
2005,09,30,15,20,13.90
2005,09,30,15,21,13.90
2005,09,30,15,22,13.90
2005,09,30,15,23,13.90
2005,09,30,15,24,13.90
2005,09,30,15,25,13.90
2005,09,30,15,26,14.00
2005,09,30,15,27,14.00
2005,09,30,15,28,14.00
2005,09,30,15,29,14.10
2005,09,30,15,30,14.20
2005,09,30,15,31,14.20
2005,09,30,15,32,14.20
2005,09,30,15,33,14.20
2005,09,30,15,34,14.20
2005,09,30,15,35,14.20
2005,09,30,15,36,14.20
2005,09,30,15,37,14.20
2005,09,30,15,38,14.20
2005,09,30,15,39,14.20
2005,09,30,15,40,14.20
2005,09,30,15,41,14.20
2005,09,30,15,42,14.20
2005,09,30,15,43,14.20
2005,09,30,15,44,14.30
2005,09,30,15,45,14.40
2005,09,30,15,46,14.40
2005,09,30,15,47,14.40
2005,09,30,15,48,14.40
2005,09,30,15,49,14.40
2005,09,30,15,50,14.40
2005,09,30,15,51,14.40
2005,09,30,15,52,14.40
2005,09,30,15,53,14.40
2005,09,30,15,54,14.40
2005,09,30,15,55,14.40
2005,09,30,15,56,14.40
2005,09,30,15,57,14.30
2005,09,30,15,58,14.30
2005,09,30,15,59,14.30
2005,09,30,16,00,14.40
2005,09,30,16,01,14.40
2005,09,30,16,02,14.40
2005,09,30,16,03,14.40
2005,09,30,16,04,14.40
2005,09,30,16,05,14.40
2005,09,30,16,06,14.40
2005,09,30,16,07,14.40
2005,09,30,16,08,14.40
2005,09,30,16,09,14.50
2005,09,30,16,10,14.50
2005,09,30,16,11,14.50
2005,09,30,16,12,14.50
2005,09,30,16,13,14.50
2005,09,30,16,14,14.50
2005,09,30,16,15,14.50
2005,09,30,16,16,14.50
2005,09,30,16,17,14.50
2005,09,30,16,18,14.50
2005,09,30,16,19,14.60
2005,09,30,16,20,14.60
2005,09,30,16,21,14.60
2005,09,30,16,22,14.70
2005,09,30,16,23,14.70
2005,09,30,16,24,14.70
2005,09,30,16,25,14.80
2005,09,30,16,26,14.70
2005,09,30,16,27,14.70
2005,09,30,16,28,14.70
2005,09,30,16,29,14.70
2005,09,30,16,30,14.70
2005,09,30,16,31,14.70
2005,09,30,16,32,14.70
2005,09,30,16,33,14.70
2005,09,30,16,34,14.80
2005,09,30,16,35,14.80
2005,09,30,16,36,14.80
2005,09,30,16,37,14.90
2005,09,30,16,38,14.90
2005,09,30,16,39,14.90
2005,09,30,16,40,14.90
2005,09,30,16,41,14.80
2005,09,30,16,42,14.80
2005,09,30,16,43,14.80
2005,09,30,16,44,14.80
2005,09,30,16,45,14.80
2005,09,30,16,46,14.70
2005,09,30,16,47,14.80
2005,09,30,16,48,14.80
2005,09,30,16,49,14.90
2005,09,30,16,50,15.00
2005,09,30,16,51,15.00
2005,09,30,16,52,15.10
2005,09,30,16,53,15.10
2005,09,30,16,54,15.20
2005,09,30,16,55,15.20
2005,09,30,16,56,15.20
2005,09,30,16,57,15.20
2005,09,30,16,58,15.20
2005,09,30,16,59,15.20
2005,09,30,17,00,15.10
2005,09,30,17,01,15.10
2005,09,30,17,02,15.10
2005,09,30,17,03,15.10
2005,09,30,17,04,15.00
2005,09,30,17,05,15.00
2005,09,30,17,06,15.00
2005,09,30,17,07,15.00
2005,09,30,17,08,15.00
2005,09,30,17,09,15.00
2005,09,30,17,10,15.00
2005,09,30,17,11,15.00
2005,09,30,17,12,15.00
2005,09,30,17,13,15.00
2005,09,30,17,14,15.10
2005,09,30,17,15,15.10
2005,09,30,17,16,15.10
2005,09,30,17,17,15.10
2005,09,30,17,18,15.10
2005,09,30,17,19,15.10
2005,09,30,17,20,15.20
2005,09,30,17,21,15.20
2005,09,30,17,22,15.10
2005,09,30,17,23,15.10
2005,09,30,17,24,15.10
2005,09,30,17,25,15.10
2005,09,30,17,26,15.10